Tracking 21998 objects as of 1-Dec-2020
HD Live streaming from Space Station
objects crossing your sky now

OSCAR 30 DEB

Track OSCAR 30 DEB now!
10-day predictions


NORAD ID: 21878
Int'l Code: 1985-066H
Perigee: 976.3 km
Apogee: 1,200.8 km
Inclination: 90.1 °
Period: 106.9 minutes
Semi major axis: 7459 km
RCS: 0.311 m2 (medium)
Launch date: August 3, 1985
Source: United States (US)
Launch site: AIR FORCE WESTERN TEST RANGE (AFWTR)

Note: This is SATELLITE DEBRIS
aabbcc
Your satellite tracking list
Your tracking list is empty




NASA's NSSDC Master Catalog

Two Line Element Set (TLE):
1 21878U 85066H   20335.64555124 +.00000570 +00000-0 +85882-3 0  9992
2 21878 090.1091 041.1837 0150461 256.1419 264.0819 13.47518329725745
Source of the keplerian elements: AFSPC